Dewpoint
54 53 53 53 53 52 52 53 54 54 54 55 56 56 57 57 56 54 52 54 53 45 46 48 49 48 47 43 38 38 35 38 38 34 32 34 33 34 31 31 28 28 26 25 25 25 23 38 36 28 33 44 46 47
54 53 53 52 52 52 51 52 52 53 53 54 55 55 56 56 56 55 51 54 55 49 45 48 51 51 50 48 41 42 37 40 42 37 36 34 29 31 27 23 29 23 27 27 25 26 34 43 36 45 45 45 46 46
54 52 52 51 50 50 50 50 50 51 52 52 53 54 56 55 55 55 50 52 53 50 48 47 45 45 46 45 42 41 42 43 39 40 36 34 29 30 27 26 28 30 29 33 31 37 43 46 47 47 47 46 47 45
53 52 51 50 50 50 50 50 49 49 50 51 52 54 55 55 54 54 50 52 52 50 47 46 48 47 47 43 42 41 40 38 39 38 34 31 28 30 29 28 26 30 35 36 35 39 42 43 47 47 47 47 45 44
52 51 50 50 49 50 49 50 49 49 50 50 52 53 54 54 54 52 51 53 53 49 46 47 48 44 40 43 42 38 37 37 37 30 30 29 32 32 31 28 31 35 33 33 32 38 40 39 45 49 47 46 45 43
52 51 50 50 49 49 50 50 49 49 49 50 51 52 53 53 53 53 51 54 53 52 49 44 47 45 44 43 42 40 37 39 37 34 33 35 37 32 29 28 33 40 41 37 38 42 42 46 48 50 47 46 45 43
51 51 50 49 49 49 50 49 49 49 50 50 51 52 52 53 52 51 50 52 52 51 49 46 42 42 42 42 42 40 40 40 38 38 35 34 34 36 34 31 36 41 43 43 43 44 43 49 47 50 49 47 47 43
50 50 50 49 48 49 50 50 49 49 50 51 51 51 52 52 52 51 54 52 52 50 51 44 43 40 44 40 38 42 39 39 37 36 35 32 38 38 33 34 39 42 42 43 44 44 42 45 50 50 50 47 45 42
50 50 50 49 48 49 50 51 50 51 51 51 51 52 51 50 50 52 54 54 51 51 47 46 41 37 42 41 43 39 38 37 39 35 34 36 36 35 36 36 42 42 38 40 43 45 45 47 49 50 48 46 45 43
50 50 50 49 48 48 50 51 51 51 52 53 52 51 49 52 56 53 51 49 49 49 49 46 46 40 39 40 40 38 40 38 36 36 40 36 35 39 44 43 42 40 40 42 36 43 46 46 49 49 48 47 46 45
50 50 49 49 48 48 49 51 51 51 52 52 50 52 53 55 51 49 45 45 45 43 47 48 44 41 42 38 40 41 38 39 36 37 36 36 37 43 46 43 46 47 44 43 40 36 40 45 49 49 49 49 48 47
50 49 49 48 47 48 49 50 51 53 52 51 51 52 51 49 46 43 42 44 43 40 43 41 42 44 42 45 40 41 38 38 34 40 37 35 38 45 46 47 46 43 43 42 39 36 40 44 47 49 49 49 49 49
49 49 49 48 48 48 49 50 51 51 51 53 51 47 46 45 39 41 39 41 41 43 44 43 42 41 43 43 41 39 37 37 40 37 35 37 42 46 45 45 46 44 41 40 38 41 44 43 43 43 43 43 43 41
49 49 49 48 48 48 49 50 51 52 51 50 48 37 45 41 43 43 42 41 43 45 43 43 44 41 42 40 42 37 38 39 36 35 35 42 46 46 47 46 44 40 40 38 38 38 38 40 41 40 39 38 40 39
49 49 49 48 48 48 49 50 51 53 51 49 49 41 42 45 45 45 45 44 47 47 46 45 46 45 42 39 40 37 37 35 37 36 39 46 47 47 46 44 44 41 40 38 38 38 39 40 40 39 41 40 38 39
50 49 47 48 49 48 49 50 52 52 51 49 47 45 46 45 46 46 45 44 47 49 46 45 43 45 42 40 39 37 35 35 36 42 46 48 47 47 45 46 44 45 40 39 39 39 40 39 38 38 40 41 41 41
48 45 48 48 49 48 50 51 51 49 48 48 44 47 46 46 47 48 48 47 48 49 47 46 41 40 43 39 39 40 37 38 42 46 50 49 46 47 47 44 45 43 42 41 41 41 41 41 41 41 40 41 41 42
48 50 49 49 49 50 50 50 50 49 46 45 44 44 46 49 49 49 49 50 47 49 49 46 46 41 41 40 39 46 48 51 52 52 51 50 49 48 48 44 45 43 43 43 42 41 41 42 43 44 44 44 45 46
49 50 50 50 50 50 47 48 50 46 45 44 45 46 47 46 50 50 48 50 52 53 50 47 44 42 43 45 49 50 51 52 53 54 54 53 50 49 49 46 46 45 44 44 43 43 43 43 44 44 45 46 46 47
50 51 51 52 51 49 47 46 49 46 43 45 46 45 45 45 47 48 49 51 50 49 46 45 44 45 46 47 53 52 52 53 54 53 52 50 53 51 47 46 46 46 46 46 47 45 46 47 48 49 49 49 48 47
51 51 51 51 48 49 48 49 47 45 45 44 43 46 47 49 47 46 46 50 49 48 46 47 47 47 47 49 53 52 54 54 52 52 52 50 53 52 50 48 46 46 45 45 45 45 46 47 47 48 48 46 41 44
50 51 49 49 47 47 48 48 48 51 48 46 47 46 44 45 47 48 48 47 47 48 49 48 48 48 48 50 52 53 55 54 52 52 51 52 52 52 51 50 48 47 47 47 47 48 48 48 49 49 46 40 40 42
50 50 48 47 45 43 41 45 47 48 44 46 49 46 47 48 47 49 46 47 48 49 49 49 48 49 49 51 54 55 55 54 53 53 53 53 53 53 53 52 50 48 47 47 47 47 47 45 47 46 40 38 39 40
51 48 45 44 44 40 44 44 46 46 45 45 45 45 46 48 50 47 45 47 49 49 48 48 49 49 52 52 53 53 53 54 54 55 54 52 51 53 54 54 53 50 49 49 47 47 47 46 43 39 36 35 35 39
41 42 43 37 45 44 41 40 42 43 42 43 43 44 45 49 46 45 45 46 47 47 48 49 50 50 51 51 52 52 53 53 53 52 53 54 54 54 54 54 54 52 50 48 48 47 47 46 42 39 37 36 35 35
37 42 38 41 42 41 40 39 40 41 42 42 44 47 48 47 46 43 45 49 49 49 52 52 52 53 52 53 52 53 55 56 54 53 53 56 55 54 53 53 52 52 50 49 48 45 45 45 44 39 36 36 36 36
38 42 43 43 43 43 41 41 43 45 44 42 45 45 47 45 43 46 52 54 52 52 52 53 53 53 54 53 54 54 56 57 56 54 55 56 56 56 55 51 49 49 48 47 46 44 44 44 40 37 36 36 35 36
43 44 41 45 42 45 41 41 42 44 46 48 48 45 44 45 45 50 52 51 53 53 54 54 54 55 54 55 57 56 55 56 57 56 55 55 55 54 54 53 51 45 47 46 46 43 41 40 38 35 34 34 35 37
41 43 45 44 45 43 43 43 43 46 52 50 47 47 47 48 49 51 52 54 55 54 52 51 50 55 55 56 56 56 55 55 54 51 50 50 49 50 51 52 51 51 49 47 40 41 41 39 38 37 37 36 37 35
42 44 44 46 45 42 44 47 46 49 51 52 53 51 49 48 48 49 49 50 50 49 50 50 51 52 52 54 53 53 54 54 53 51 49 49 49 52 50 49 47 48 47 43 41 39 38 40 36 36 36 35 34 32
43 47 46 46 45 45 45 45 45 46 47 49 51 49 47 47 47 48 49 49 49 49 48 49 49 50 49 50 48 47 47 52 54 52 51 50 50 49 46 44 45 45 44 45 44 42 39 38 37 36 35 35 35 35
43 43 43 41 42 45 46 45 46 46 46 46 46 46 45 44 43 45 47 49 49 48 47 49 51 48 50 50 49 49 44 47 51 52 51 50 48 47 46 46 44 43 42 41 40 42 42 40 39 38 37 37 37 37
44 44 44 44 45 46 48 47 46 45 45 44 44 45 45 44 43 45 47 48 47 47 48 49 49 49 49 49 49 48 46 48 46 43 44 44 42 43 43 42 42 42 41 41 42 42 43 42 41 39 39 39 39 38
Lifted_Index
5 6 7 10 11 11 11 10 9 9 8 7 7 7 7 7 6 4 2 2 1 1 1 1 -0 -1 -1 -1 -1 -0 -0 0 0 0 -0 -0 -0 0 0 1 1 1 2 2 2 2 2 2 2 2 2 1 1 2
5 6 8 10 11 12 11 10 10 9 8 8 7 7 7 6 6 4 3 2 2 1 1 1 0 -0 -0 -1 -1 -1 -0 -0 0 0 0 0 0 1 1 1 2 2 2 2 2 2 2 2 2 2 1 1 1 2
5 6 8 10 12 12 12 11 10 10 9 8 7 6 6 5 5 5 4 3 2 2 1 1 1 0 0 -0 -0 -1 -0 -0 0 0 0 1 1 1 2 2 2 2 3 3 2 2 2 1 1 1 1 1 1 1
5 6 7 10 12 13 12 12 12 11 10 8 7 6 5 5 5 5 4 3 3 2 1 1 1 1 1 1 0 0 -0 -0 0 1 1 1 2 2 2 2 2 3 3 3 2 2 2 1 1 0 0 0 1 1
5 6 8 10 12 13 13 12 12 12 11 9 7 6 5 5 5 4 3 3 3 2 2 1 1 1 2 1 1 1 1 1 1 2 2 2 2 3 3 3 3 2 2 2 2 2 1 1 0 0 0 0 0 1
5 6 8 11 12 13 12 12 12 12 11 10 8 6 5 5 4 3 3 3 3 3 2 2 2 2 2 2 2 2 2 2 2 3 3 3 3 3 3 3 2 2 2 1 1 1 1 0 0 0 -0 -0 -0 0
5 7 9 11 12 13 13 12 12 12 11 10 8 6 5 5 4 3 3 3 4 4 3 2 2 3 3 3 2 2 3 3 3 4 4 3 3 3 3 3 2 2 1 1 0 0 0 -0 -0 -0 -0 -1 -0 -0
6 7 10 12 12 13 13 13 12 11 10 9 7 6 5 4 4 4 3 4 5 4 3 2 3 3 3 3 3 3 3 3 3 3 3 3 3 3 2 2 2 1 1 0 0 0 0 0 0 -0 -1 -1 -0 -0
7 8 11 12 13 13 13 13 12 10 8 7 6 4 4 4 4 4 4 4 5 4 3 2 2 3 3 3 3 3 3 3 3 3 3 3 3 2 2 2 1 1 0 0 0 1 1 1 0 -0 -1 -1 -1 -1
8 10 12 13 13 13 13 12 11 8 7 5 4 3 3 3 3 3 3 4 4 3 2 2 2 3 3 3 3 3 3 3 3 3 2 2 2 2 1 1 1 0 0 0 0 1 1 1 1 0 -1 -1 -1 -1
10 11 12 13 13 13 13 12 10 7 5 4 3 3 2 3 3 3 3 3 3 3 3 2 2 3 3 3 3 3 3 3 3 2 2 2 2 1 1 1 0 0 0 0 0 1 2 2 1 0 -1 -2 -1 -1
11 12 12 13 13 13 12 11 9 6 4 4 3 2 2 3 3 3 3 3 3 3 3 3 2 2 2 2 2 2 2 2 2 2 2 2 1 1 1 0 0 0 0 1 1 1 2 2 2 1 0 -1 -1 -1
12 12 13 13 13 13 12 11 8 6 4 3 3 2 2 3 3 3 3 3 3 3 3 2 2 2 2 2 2 2 2 2 2 2 2 1 1 1 0 0 1 1 1 1 2 2 2 2 2 2 2 1 0 0
12 12 13 13 14 13 12 10 8 5 4 3 3 2 2 2 2 3 3 2 2 2 2 2 2 2 2 2 2 2 2 2 2 1 1 1 1 0 0 0 1 1 1 2 2 2 2 2 3 3 3 2 2 1
12 13 13 13 14 13 11 9 7 5 4 3 2 2 2 2 2 2 2 2 2 2 2 2 1 1 2 2 2 2 2 2 1 1 1 1 1 1 1 1 1 1 2 2 2 2 2 2 3 3 3 3 2 2
13 13 13 14 14 12 10 8 6 4 3 3 3 2 1 1 1 0 1 1 1 1 2 1 1 1 2 2 2 2 2 2 1 1 1 1 0 1 1 1 1 2 2 2 2 2 3 3 3 3 3 2 2 2
13 13 13 14 13 11 8 6 5 4 3 3 2 2 1 0 0 0 0 1 1 2 2 2 2 2 2 2 2 2 1 1 1 1 0 0 0 1 1 1 2 2 2 2 2 2 3 3 3 2 2 2 1 1
12 12 13 13 11 9 7 6 5 4 3 3 2 2 1 0 0 0 1 1 1 2 2 2 2 2 2 1 1 1 1 0 0 0 -0 -0 0 1 1 1 2 2 2 2 2 2 3 2 2 2 1 1 0 0
11 11 11 11 10 8 7 6 5 4 3 3 3 2 2 1 0 0 1 1 1 2 2 2 2 2 2 1 1 0 -0 -0 -0 -0 -0 -0 0 1 1 1 2 2 2 2 2 2 2 1 1 1 1 0 0 0
10 10 10 9 8 7 6 5 5 4 4 3 3 2 2 1 1 1 1 1 1 1 2 2 2 2 2 1 1 0 -0 -0 -0 -0 -0 -0 -0 0 1 2 2 2 2 2 2 1 1 0 0 0 0 0 1 2
9 9 9 8 7 6 5 5 4 4 3 3 2 2 1 1 1 1 1 1 1 1 1 1 1 2 2 1 1 0 -0 -0 -0 -0 0 -0 -0 0 1 2 2 3 2 2 1 1 0 0 0 0 0 1 2 3
8 8 8 7 7 6 5 4 4 3 2 2 1 1 1 1 1 2 2 2 2 1 1 1 1 1 1 1 1 0 0 0 -0 -0 -0 -0 0 0 1 1 2 2 2 2 1 1 0 0 0 0 1 2 3 3
7 7 7 6 6 6 5 4 3 2 1 1 0 0 0 0 1 1 2 2 2 2 1 1 1 1 1 1 1 0 0 0 0 -0 -0 0 0 0 0 0 1 1 1 1 1 1 0 0 0 0 2 3 3 3
6 6 6 6 6 5 5 4 3 2 1 1 0 0 0 0 0 1 1 1 1 1 1 1 1 1 0 0 0 0 0 0 0 -0 -0 0 0 0 -0 -0 -1 -0 -0 -0 -0 -0 -0 0 0 0 2 3 4 4
6 6 6 6 5 5 5 4 3 2 2 1 1 0 0 -0 -0 0 0 0 0 0 0 0 0 0 -0 -0 -0 -0 -0 -0 -0 -0 -0 -0 -0 -0 -1 -1 -1 -1 -1 -1 -1 -1 -0 -0 0 0 1 3 4 4
6 6 6 5 5 5 4 4 3 2 2 1 1 0 0 0 0 0 0 -0 -0 -0 -0 -0 0 0 -0 -0 -0 -0 -1 -1 -1 -1 -1 -1 -1 -1 -1 -2 -2 -1 -1 -1 -1 -0 0 0 1 1 2 3 3 4
5 5 5 5 5 5 4 4 3 2 2 1 1 0 0 0 0 0 -0 -1 -1 -1 -0 -0 -0 -0 -0 -1 -1 -1 -1 -1 -1 -1 -1 -1 -1 -2 -2 -2 -1 -1 -1 -0 -0 0 0 1 1 1 2 2 3 3
5 5 4 4 4 4 4 3 3 2 1 0 0 0 0 0 0 0 -0 -0 -0 -0 -0 -0 -0 -0 -1 -1 -1 -1 -1 -1 -1 -1 -1 -2 -2 -2 -2 -1 -1 -1 -1 -0 0 0 1 1 1 1 2 2 2 3
5 5 4 4 3 3 3 3 2 2 1 1 1 1 0 0 0 0 0 0 0 0 -0 -0 -0 -0 -1 -1 -1 -1 -1 -1 -1 -1 -2 -2 -2 -1 -1 -1 -1 -1 -0 -0 0 1 1 1 1 1 1 1 2 2
5 5 4 3 3 3 2 2 2 1 1 1 1 1 1 1 1 1 1 1 1 0 0 -0 -0 -0 -0 -1 -1 -1 -1 -1 -1 -1 -1 -1 -1 -1 -1 -0 0 0 0 0 0 1 1 1 1 0 0 1 2 2
4 4 3 3 2 2 2 2 2 1 1 2 2 1 1 1 1 1 1 1 1 1 0 -0 -0 -0 -0 -0 -0 -0 -0 -0 -0 -0 -1 -1 -1 -1 -0 0 1 1 1 1 1 1 1 1 1 1 0 1 1 2
3 3 2 2 2 2 2 2 1 1 1 2 2 1 1 1 1 1 1 1 1 1 1 0 -0 -0 -0 -0 -0 0 0 0 -0 -0 -0 -1 -1 -0 0 1 1 1 1 1 1 2 2 2 2 2 1 1 2 2
3 2 2 2 2 2 2 2 1 1 1 1 1 1 1 1 1 1 1 1 1 1 1 0 -0 -0 -0 -0 0 0 0 0 -0 -0 -0 -1 -1 -0 1 1 1 1 1 1 2 2 3 3 3 3 2 2 2 3